Tracking 35237 objects as of 5-Sep-2026
HD Live streaming from Space Station
objects crossing your sky now

FALCON 9 R/B

Track FALCON 9 R/B now!


NORAD ID: 62484
Int'l Code: 2025-001B
Launch date: January 4, 2025
Source: United States (US)
Launch site: AIR FORCE EASTERN TEST RANGE (AFETR)

Note: This is a ROCKET BODY
Your satellite tracking list
Your tracking list is empty




NASA's NSSDC Master Catalog

Two Line Element Set (TLE):
1 62484U 25001B   26247.92444637  .00000036  00000-0  68780-3 0  9993
2 62484  24.4821 194.5585 7949380  29.9260 357.6313  1.41766692  8639
Source of the keplerian elements: AFSPC